Skip Page Navigation
NASA JPL Caltech
NASA Logo - Jet Propulsion Laboratory + View the NASA Portal
+ Center for Near-Earth Object Studies
JPL Home Earth Solar System Stars & Galaxies Technology
JPL Solar System Dynamics
BODIES ORBITS EPHEMERIDES TOOLS PHYSICAL DATA DISCOVERY FAQ SITE MAP
JPL Small-Body Database Browser
Search: [ help ]  
34151 (2000 QH19)
Classification: Main-belt Asteroid          SPK-ID: 2034151
Ephemeris | Orbit Diagram | Orbital Elements | Mission Design | Physical Parameters | Discovery Circumstances | Close-Approach Data ]

[ show orbit diagram ]
Orbital Elements at Epoch 2459000.5 (2020-May-31.0) TDB
Reference: JPL 23 (heliocentric ecliptic J2000)
 Element Value Uncertainty (1-sigma)   Units 
e .04542490727168506 3.4425e-08  
a 2.283464861951065 8.5756e-09 au
q 2.179738682338787 7.6864e-08 au
i 1.027421322137584 3.6653e-06 deg
node 102.737753843187 0.00023996 deg
peri 22.09135561386705 0.00024514 deg
M 115.6788386700675 5.1312e-05 deg
tp 2458595.512754761180
(2019-Apr-22.01275476)
0.00017876 TDB
period 1260.346403561367
3.45
7.0999e-06
1.944e-08
d
yr
n .2856357577430667 1.6091e-09 deg/d
Q 2.387191041563343 8.9652e-09 au
  Orbit Determination Parameters
   # obs. used (total)      847  
   data-arc span      10310 days (28.23 yr)  
   first obs. used      1992-03-26  
   last obs. used      2020-06-17  
   planetary ephem.      DE431  
   SB-pert. ephem.      SB431-N16  
   condition code      0  
   norm. resid. RMS      .58065  
   source      ORB  
   producer      Otto Matic  
   solution date      2020-Jun-23 20:19:42  

Additional Information
 Earth MOID = 1.19508 au 
 Jupiter MOID = 2.61774 au 
 T_jup = 3.602 
[ show covariance matrix ]

Ephemeris | Orbit Diagram | Orbital Elements | Mission Design | Physical Parameters | Discovery Circumstances | Close-Approach Data ]

Physical Parameter Table
Parameter Symbol Value Units Sigma Reference Notes
absolute magnitude H 16.1   n/a MPO417045  
diameter diameter 2.185 km 0.850 urn:nasa:pds:neowise_diameters_albedos::2.0[mainbelt] (http://adsabs.harvard.edu/abs/2011ApJ...741...68M)  
geometric albedo albedo 0.102   0.069 urn:nasa:pds:neowise_diameters_albedos::2.0[mainbelt] (http://adsabs.harvard.edu/abs/2011ApJ...741...68M)  

34151 (2000 QH19)          Discovered 2000-Aug-24 by LINEAR at Socorro
Reference: 20020128/Numbers.arcLast Updated: 2004-04-19

[ show close-approach data ]
Ephemeris | Orbit Diagram | Orbital Elements | Mission Design | Physical Parameters | Discovery Circumstances | Close-Approach Data ]
ABOUT SSD CREDITS/AWARDS PRIVACY/COPYRIGHT GLOSSARY LINKS
FirstGov 2020-Jul-06 18:28 UT
(server date/time)  
NASA Home Page
Site Manager:   Ryan S. Park
Webmaster  Alan B. Chamberlin